Location: Monrovia
(34.7865°N, 86.7139°W)
Time: 20:34:17
(UTC+00:00)

Lacrosse 5 rocket - Pass Details

Date: 14 July 2020
Orbit: 464 x 632 km, 57.0° (Epoch: 08 August)

Event Time Altitude Azimuth Distance (km) Brightness Sun altitude
Rises 04:34:07 0° 327° (NNW) 2,683 5.9 -30.6°
Reaches altitude 10° 04:36:31 10° 336° (NNW) 1,758 4.8 -30.8°
Enters shadow 04:38:13 22° 351° (N) 1,169 3.6 -30.9°
